owner,sensor,date,latitude,longitude,vertical_datum,sea_water_practical_salinity,qcFlag 
TABS,ioos:station:wmo:42050:1,2013-03-01T00:00:00Z,28.8425,-94.2433,2.0,34.199,11111222 
TABS,ioos:station:wmo:42050:1,2013-03-01T00:30:00Z,28.8425,-94.2433,2.0,34.1938,11111222 
TABS,ioos:station:wmo:42050:1,2013-03-01T01:00:00Z,28.8425,-94.2433,2.0,34.1595,11111222 
TABS,ioos:station:wmo:42050:1,2013-03-01T01:30:00Z,28.8425,-94.2433,2.0,34.1367,11111222 
TABS,ioos:station:wmo:42050:1,2013-03-01T02:00:00Z,28.8425,-94.2433,2.0,34.1251,11111222 
TABS,ioos:station:wmo:42050:1,2013-03-01T02:30:00Z,28.8425,-94.2433,2.0,34.1255,11111222 
TABS,ioos:station:wmo:42050:1,2013-03-01T03:00:00Z,28.8425,-94.2433,2.0,34.1486,11111222 
TABS,ioos:station:wmo:42050:1,2013-03-01T03:30:00Z,28.8425,-94.2433,2.0,34.1293,11111222 
TABS,ioos:station:wmo:42050:1,2013-03-01T04:00:00Z,28.8425,-94.2433,2.0,34.1289,11111222 
TABS,ioos:station:wmo:42050:1,2013-03-01T04:30:00Z,28.8425,-94.2433,2.0,34.1129,11111222 
TABS,ioos:station:wmo:42050:1,2013-03-01T05:00:00Z,28.8425,-94.2433,2.0,34.1186,11111222 
TABS,ioos:station:wmo:42050:1,2013-03-01T05:30:00Z,28.8425,-94.2433,2.0,34.1329,11111222 
TABS,ioos:station:wmo:42050:1,2013-03-01T06:00:00Z,28.8425,-94.2433,2.0,34.1268,11111222 
TABS,ioos:station:wmo:42050:1,2013-03-01T06:30:00Z,28.8425,-94.2433,2.0,34.1728,11111222 
TABS,ioos:station:wmo:42050:1,2013-03-01T07:00:00Z,28.8425,-94.2433,2.0,34.1766,11111222 
TABS,ioos:station:wmo:42050:1,2013-03-01T07:30:00Z,28.8425,-94.2433,2.0,34.2056,11111222 
TABS,ioos:station:wmo:42050:1,2013-03-01T08:00:00Z,28.8425,-94.2433,2.0,34.2188,11111222 
TABS,ioos:station:wmo:42050:1,2013-03-01T11:00:00Z,28.8425,-94.2433,2.0,34.2482,11111222 
TABS,ioos:station:wmo:42050:1,2013-03-01T11:30:00Z,28.8425,-94.2433,2.0,34.2425,11111222 
TABS,ioos:station:wmo:42050:1,2013-03-01T12:00:00Z,28.8425,-94.2433,2.0,34.2619,11111222 
TABS,ioos:station:wmo:42050:1,2013-03-01T14:30:00Z,28.8425,-94.2433,2.0,34.2295,11111222 
TABS,ioos:station:wmo:42050:1,2013-03-01T15:00:00Z,28.8425,-94.2433,2.0,34.2202,11111222 
TABS,ioos:station:wmo:42050:1,2013-03-01T15:30:00Z,28.8425,-94.2433,2.0,34.2103,11111222 
TABS,ioos:station:wmo:42050:1,2013-03-01T16:00:00Z,28.8425,-94.2433,2.0,34.1851,11111222 
TABS,ioos:station:wmo:42050:1,2013-03-01T16:30:00Z,28.8425,-94.2433,2.0,34.1939,11111222 
TABS,ioos:station:wmo:42050:1,2013-03-01T17:00:00Z,28.8425,-94.2433,2.0,34.1869,11111222 
TABS,ioos:station:wmo:42050:1,2013-03-01T17:30:00Z,28.8425,-94.2433,2.0,34.176,11111222 
TABS,ioos:station:wmo:42050:1,2013-03-01T18:00:00Z,28.8425,-94.2433,2.0,34.1676,11111222 
TABS,ioos:station:wmo:42050:1,2013-03-01T18:30:00Z,28.8425,-94.2433,2.0,34.1739,11111222 
TABS,ioos:station:wmo:42050:1,2013-03-01T19:00:00Z,28.8425,-94.2433,2.0,34.1772,11111222 
TABS,ioos:station:wmo:42050:1,2013-03-01T19:30:00Z,28.8425,-94.2433,2.0,34.1548,11111222 
TABS,ioos:station:wmo:42050:1,2013-03-01T20:00:00Z,28.8425,-94.2433,2.0,34.1899,11111222 
TABS,ioos:station:wmo:42050:1,2013-03-01T20:30:00Z,28.8425,-94.2433,2.0,34.1857,11111222 
TABS,ioos:station:wmo:42050:1,2013-03-01T21:00:00Z,28.8425,-94.2433,2.0,34.1829,11111222 
TABS,ioos:station:wmo:42050:1,2013-03-01T21:30:00Z,28.8425,-94.2433,2.0,34.1993,11111222 
TABS,ioos:station:wmo:42050:1,2013-03-01T22:00:00Z,28.8425,-94.2433,2.0,34.2043,11111222 
TABS,ioos:station:wmo:42050:1,2013-03-01T22:30:00Z,28.8425,-94.2433,2.0,34.212,11111222 
TABS,ioos:station:wmo:42050:1,2013-03-01T23:00:00Z,28.8425,-94.2433,2.0,34.2149,11111222 
TABS,ioos:station:wmo:42050:1,2013-03-01T23:30:00Z,28.8425,-94.2433,2.0,34.1862,11111222 
TABS,ioos:station:wmo:42050:1,2013-03-02T00:00:00Z,28.8425,-94.2433,2.0,34.1917,11111222 
TABS,ioos:station:wmo:42050:1,2013-03-02T00:30:00Z,28.8425,-94.2433,2.0,34.1734,11111222 
TABS,ioos:station:wmo:42050:1,2013-03-02T01:00:00Z,28.8425,-94.2433,2.0,34.1637,11111222 
TABS,ioos:station:wmo:42050:1,2013-03-02T01:30:00Z,28.8425,-94.2433,2.0,34.1529,11111222 
TABS,ioos:station:wmo:42050:1,2013-03-02T02:00:00Z,28.8425,-94.2433,2.0,34.1439,11111222 
TABS,ioos:station:wmo:42050:1,2013-03-02T02:30:00Z,28.8425,-94.2433,2.0,34.1122,11111222 
TABS,ioos:station:wmo:42050:1,2013-03-02T03:00:00Z,28.8425,-94.2433,2.0,34.0994,11111222 
TABS,ioos:station:wmo:42050:1,2013-03-02T03:30:00Z,28.8425,-94.2433,2.0,34.0866,11111222 
TABS,ioos:station:wmo:42050:1,2013-03-02T04:00:00Z,28.8425,-94.2433,2.0,34.0173,11111222 
TABS,ioos:station:wmo:42050:1,2013-03-02T04:30:00Z,28.8425,-94.2433,2.0,34.0297,11111222 
TABS,ioos:station:wmo:42050:1,2013-03-02T05:00:00Z,28.8425,-94.2433,2.0,34.0271,11111222 
TABS,ioos:station:wmo:42050:1,2013-03-02T05:30:00Z,28.8425,-94.2433,2.0,34.0312,11111222 
TABS,ioos:station:wmo:42050:1,2013-03-02T06:00:00Z,28.8425,-94.2433,2.0,34.0281,11111222 
TABS,ioos:station:wmo:42050:1,2013-03-02T06:30:00Z,28.8425,-94.2433,2.0,34.0292,11111222 
TABS,ioos:station:wmo:42050:1,2013-03-02T07:00:00Z,28.8425,-94.2433,2.0,34.079,11111222 
TABS,ioos:station:wmo:42050:1,2013-03-02T07:30:00Z,28.8425,-94.2433,2.0,34.0801,11111222 
TABS,ioos:station:wmo:42050:1,2013-03-02T08:00:00Z,28.8425,-94.2433,2.0,34.0914,11111222 
TABS,ioos:station:wmo:42050:1,2013-03-02T08:30:00Z,28.8425,-94.2433,2.0,34.0772,11111222 
TABS,ioos:station:wmo:42050:1,2013-03-02T09:00:00Z,28.8425,-94.2433,2.0,34.0798,11111222 
TABS,ioos:station:wmo:42050:1,2013-03-02T09:30:00Z,28.8425,-94.2433,2.0,34.0885,11111222 
TABS,ioos:station:wmo:42050:1,2013-03-02T10:00:00Z,28.8425,-94.2433,2.0,34.1065,11111222 
TABS,ioos:station:wmo:42050:1,2013-03-02T10:30:00Z,28.8425,-94.2433,2.0,34.1218,11111222 
TABS,ioos:station:wmo:42050:1,2013-03-02T11:00:00Z,28.8425,-94.2433,2.0,34.1433,11111222 
TABS,ioos:station:wmo:42050:1,2013-03-02T11:30:00Z,28.8425,-94.2433,2.0,34.1871,11111222 
TABS,ioos:station:wmo:42050:1,2013-03-02T12:00:00Z,28.8425,-94.2433,2.0,34.1884,11111222 
TABS,ioos:station:wmo:42050:1,2013-03-02T12:30:00Z,28.8425,-94.2433,2.0,34.2028,11111222 
TABS,ioos:station:wmo:42050:1,2013-03-02T13:00:00Z,28.8425,-94.2433,2.0,34.2235,11111222 
TABS,ioos:station:wmo:42050:1,2013-03-02T13:30:00Z,28.8425,-94.2433,2.0,34.2023,11111222 
TABS,ioos:station:wmo:42050:1,2013-03-02T14:00:00Z,28.8425,-94.2433,2.0,34.2087,11111222 
TABS,ioos:station:wmo:42050:1,2013-03-02T14:30:00Z,28.8425,-94.2433,2.0,34.1933,11111222 
TABS,ioos:station:wmo:42050:1,2013-03-02T15:00:00Z,28.8425,-94.2433,2.0,34.1823,11111222 
TABS,ioos:station:wmo:42050:1,2013-03-02T15:30:00Z,28.8425,-94.2433,2.0,34.1386,11111222 
TABS,ioos:station:wmo:42050:1,2013-03-02T16:00:00Z,28.8425,-94.2433,2.0,34.139,11111222 
TABS,ioos:station:wmo:42050:1,2013-03-02T16:30:00Z,28.8425,-94.2433,2.0,34.1078,11111222 
TABS,ioos:station:wmo:42050:1,2013-03-02T17:00:00Z,28.8425,-94.2433,2.0,34.083,11111222 
TABS,ioos:station:wmo:42050:1,2013-03-02T17:30:00Z,28.8425,-94.2433,2.0,34.0622,11111222 
TABS,ioos:station:wmo:42050:1,2013-03-02T18:00:00Z,28.8425,-94.2433,2.0,34.0571,11111222 
TABS,ioos:station:wmo:42050:1,2013-03-02T18:30:00Z,28.8425,-94.2433,2.0,34.0524,11111222 
TABS,ioos:station:wmo:42050:1,2013-03-02T19:00:00Z,28.8425,-94.2433,2.0,34.0663,11111222 
TABS,ioos:station:wmo:42050:1,2013-03-02T19:30:00Z,28.8425,-94.2433,2.0,34.0518,11111222 
TABS,ioos:station:wmo:42050:1,2013-03-02T20:00:00Z,28.8425,-94.2433,2.0,34.0328,11111222 
TABS,ioos:station:wmo:42050:1,2013-03-02T20:30:00Z,28.8425,-94.2433,2.0,34.0672,11111222 
TABS,ioos:station:wmo:42050:1,2013-03-02T21:00:00Z,28.8425,-94.2433,2.0,34.0758,11111222 
TABS,ioos:station:wmo:42050:1,2013-03-02T21:30:00Z,28.8425,-94.2433,2.0,34.0667,11111222 
TABS,ioos:station:wmo:42050:1,2013-03-02T22:00:00Z,28.8425,-94.2433,2.0,34.0715,11111222 
TABS,ioos:station:wmo:42050:1,2013-03-02T22:30:00Z,28.8425,-94.2433,2.0,34.0842,11111222 
TABS,ioos:station:wmo:42050:1,2013-03-02T23:00:00Z,28.8425,-94.2433,2.0,34.0726,11111222 
TABS,ioos:station:wmo:42050:1,2013-03-02T23:30:00Z,28.8425,-94.2433,2.0,34.0695,11111222 
TABS,ioos:station:wmo:42050:1,2013-03-03T00:00:00Z,28.8425,-94.2433,2.0,34.0573,11111222 
TABS,ioos:station:wmo:42050:1,2013-03-03T00:30:00Z,28.8425,-94.2433,2.0,33.9646,11111222 
TABS,ioos:station:wmo:42050:1,2013-03-03T01:00:00Z,28.8425,-94.2433,2.0,33.9317,11111222 
TABS,ioos:station:wmo:42050:1,2013-03-03T01:30:00Z,28.8425,-94.2433,2.0,33.8666,11111222 
TABS,ioos:station:wmo:42050:1,2013-03-03T02:00:00Z,28.8425,-94.2433,2.0,33.8275,11111222 
TABS,ioos:station:wmo:42050:1,2013-03-03T02:30:00Z,28.8425,-94.2433,2.0,33.733,11111222 
TABS,ioos:station:wmo:42050:1,2013-03-03T03:00:00Z,28.8425,-94.2433,2.0,33.7392,11111222 
TABS,ioos:station:wmo:42050:1,2013-03-03T03:30:00Z,28.8425,-94.2433,2.0,33.6957,11111222 
TABS,ioos:station:wmo:42050:1,2013-03-03T04:00:00Z,28.8425,-94.2433,2.0,33.6856,11111222 
TABS,ioos:station:wmo:42050:1,2013-03-03T04:30:00Z,28.8425,-94.2433,2.0,33.609,11111222 
TABS,ioos:station:wmo:42050:1,2013-03-03T05:00:00Z,28.8425,-94.2433,2.0,33.5991,11111222 
TABS,ioos:station:wmo:42050:1,2013-03-03T05:30:00Z,28.8425,-94.2433,2.0,33.5739,11111222 
TABS,ioos:station:wmo:42050:1,2013-03-03T06:00:00Z,28.8425,-94.2433,2.0,33.558,11111222 
TABS,ioos:station:wmo:42050:1,2013-03-03T06:30:00Z,28.8425,-94.2433,2.0,33.4087,11111222 
TABS,ioos:station:wmo:42050:1,2013-03-03T07:00:00Z,28.8425,-94.2433,2.0,33.4202,11111222 
TABS,ioos:station:wmo:42050:1,2013-03-03T07:30:00Z,28.8425,-94.2433,2.0,33.4098,11111222 
TABS,ioos:station:wmo:42050:1,2013-03-03T08:00:00Z,28.8425,-94.2433,2.0,33.3965,11111222 
TABS,ioos:station:wmo:42050:1,2013-03-03T08:30:00Z,28.8425,-94.2433,2.0,33.4109,11111222 
TABS,ioos:station:wmo:42050:1,2013-03-03T09:00:00Z,28.8425,-94.2433,2.0,33.3979,11111222 
TABS,ioos:station:wmo:42050:1,2013-03-03T09:30:00Z,28.8425,-94.2433,2.0,33.3789,11111222 
TABS,ioos:station:wmo:42050:1,2013-03-03T10:00:00Z,28.8425,-94.2433,2.0,33.3239,11111222 
TABS,ioos:station:wmo:42050:1,2013-03-03T10:30:00Z,28.8425,-94.2433,2.0,33.3104,11111222 
TABS,ioos:station:wmo:42050:1,2013-03-03T11:00:00Z,28.8425,-94.2433,2.0,33.2306,11111222 
TABS,ioos:station:wmo:42050:1,2013-03-03T11:30:00Z,28.8425,-94.2433,2.0,33.2249,11111222 
TABS,ioos:station:wmo:42050:1,2013-03-03T12:00:00Z,28.8425,-94.2433,2.0,33.2171,11111222 
TABS,ioos:station:wmo:42050:1,2013-03-03T12:30:00Z,28.8425,-94.2433,2.0,33.0699,11111222 
TABS,ioos:station:wmo:42050:1,2013-03-03T13:00:00Z,28.8425,-94.2433,2.0,33.1275,11111222 
TABS,ioos:station:wmo:42050:1,2013-03-03T13:30:00Z,28.8425,-94.2433,2.0,33.0547,11111222 
TABS,ioos:station:wmo:42050:1,2013-03-03T14:00:00Z,28.8425,-94.2433,2.0,33.0442,11111222 
TABS,ioos:station:wmo:42050:1,2013-03-03T14:30:00Z,28.8425,-94.2433,2.0,33.0683,11111222 
TABS,ioos:station:wmo:42050:1,2013-03-03T15:00:00Z,28.8425,-94.2433,2.0,33.0843,11111222 
TABS,ioos:station:wmo:42050:1,2013-03-03T15:30:00Z,28.8425,-94.2433,2.0,33.1207,11111222 
TABS,ioos:station:wmo:42050:1,2013-03-03T16:00:00Z,28.8425,-94.2433,2.0,33.1029,11111222 
TABS,ioos:station:wmo:42050:1,2013-03-03T16:30:00Z,28.8425,-94.2433,2.0,33.1204,11111222 
TABS,ioos:station:wmo:42050:1,2013-03-03T17:00:00Z,28.8425,-94.2433,2.0,33.1709,11111222 
TABS,ioos:station:wmo:42050:1,2013-03-03T17:30:00Z,28.8425,-94.2433,2.0,33.2135,11111222 
TABS,ioos:station:wmo:42050:1,2013-03-03T18:00:00Z,28.8425,-94.2433,2.0,33.258,11111222 
TABS,ioos:station:wmo:42050:1,2013-03-03T18:30:00Z,28.8425,-94.2433,2.0,33.337,11111222 
TABS,ioos:station:wmo:42050:1,2013-03-03T19:00:00Z,28.8425,-94.2433,2.0,33.3406,11111222 
TABS,ioos:station:wmo:42050:1,2013-03-03T19:30:00Z,28.8425,-94.2433,2.0,33.3697,11111222 
TABS,ioos:station:wmo:42050:1,2013-03-03T20:00:00Z,28.8425,-94.2433,2.0,33.4116,11111222 
TABS,ioos:station:wmo:42050:1,2013-03-03T20:30:00Z,28.8425,-94.2433,2.0,33.4965,11111222 
TABS,ioos:station:wmo:42050:1,2013-03-03T21:00:00Z,28.8425,-94.2433,2.0,33.5474,11111222 
TABS,ioos:station:wmo:42050:1,2013-03-03T21:30:00Z,28.8425,-94.2433,2.0,33.5671,11111222 
TABS,ioos:station:wmo:42050:1,2013-03-03T22:00:00Z,28.8425,-94.2433,2.0,33.6177,11111222 
TABS,ioos:station:wmo:42050:1,2013-03-03T22:30:00Z,28.8425,-94.2433,2.0,33.6576,11111222 
TABS,ioos:station:wmo:42050:1,2013-03-03T23:00:00Z,28.8425,-94.2433,2.0,33.6982,11111222 
TABS,ioos:station:wmo:42050:1,2013-03-03T23:30:00Z,28.8425,-94.2433,2.0,33.7072,11111222 
TABS,ioos:station:wmo:42050:1,2013-03-04T00:00:00Z,28.8425,-94.2433,2.0,33.7104,11111222 
TABS,ioos:station:wmo:42050:1,2013-03-04T00:30:00Z,28.8425,-94.2433,2.0,33.7227,11111222 
TABS,ioos:station:wmo:42050:1,2013-03-04T01:00:00Z,28.8425,-94.2433,2.0,33.719,11111222 
TABS,ioos:station:wmo:42050:1,2013-03-04T01:30:00Z,28.8425,-94.2433,2.0,33.7031,11111222 
TABS,ioos:station:wmo:42050:1,2013-03-04T02:00:00Z,28.8425,-94.2433,2.0,33.6857,11111222 
TABS,ioos:station:wmo:42050:1,2013-03-04T02:30:00Z,28.8425,-94.2433,2.0,33.6677,11111222 
TABS,ioos:station:wmo:42050:1,2013-03-04T03:00:00Z,28.8425,-94.2433,2.0,33.6514,11111222 
TABS,ioos:station:wmo:42050:1,2013-03-04T03:30:00Z,28.8425,-94.2433,2.0,33.6328,11111222 
TABS,ioos:station:wmo:42050:1,2013-03-04T04:00:00Z,28.8425,-94.2433,2.0,33.6142,11111222 
TABS,ioos:station:wmo:42050:1,2013-03-04T04:30:00Z,28.8425,-94.2433,2.0,33.6007,11111222 
TABS,ioos:station:wmo:42050:1,2013-03-04T05:00:00Z,28.8425,-94.2433,2.0,33.5726,11111222 
TABS,ioos:station:wmo:42050:1,2013-03-04T05:30:00Z,28.8425,-94.2433,2.0,33.5576,11111222 
TABS,ioos:station:wmo:42050:1,2013-03-04T06:00:00Z,28.8425,-94.2433,2.0,33.5385,11111222 
TABS,ioos:station:wmo:42050:1,2013-03-04T06:30:00Z,28.8425,-94.2433,2.0,33.53,11111222 
TABS,ioos:station:wmo:42050:1,2013-03-04T07:00:00Z,28.8425,-94.2433,2.0,33.5226,11111222 
TABS,ioos:station:wmo:42050:1,2013-03-04T07:30:00Z,28.8425,-94.2433,2.0,33.5093,11111222 
TABS,ioos:station:wmo:42050:1,2013-03-04T08:00:00Z,28.8425,-94.2433,2.0,33.5045,11111222 
TABS,ioos:station:wmo:42050:1,2013-03-04T08:30:00Z,28.8425,-94.2433,2.0,33.5139,11111222 
TABS,ioos:station:wmo:42050:1,2013-03-04T09:00:00Z,28.8425,-94.2433,2.0,33.5237,11111222 
TABS,ioos:station:wmo:42050:1,2013-03-04T09:30:00Z,28.8425,-94.2433,2.0,33.5313,11111222 
TABS,ioos:station:wmo:42050:1,2013-03-04T10:00:00Z,28.8425,-94.2433,2.0,33.5306,11111222 
TABS,ioos:station:wmo:42050:1,2013-03-04T10:30:00Z,28.8425,-94.2433,2.0,33.5456,11111222 
TABS,ioos:station:wmo:42050:1,2013-03-04T11:00:00Z,28.8425,-94.2433,2.0,33.5729,11111222 
TABS,ioos:station:wmo:42050:1,2013-03-04T11:30:00Z,28.8425,-94.2433,2.0,33.596,11111222 
TABS,ioos:station:wmo:42050:1,2013-03-04T12:00:00Z,28.8425,-94.2433,2.0,33.6264,11111222 
TABS,ioos:station:wmo:42050:1,2013-03-04T12:30:00Z,28.8425,-94.2433,2.0,33.6823,11111222 
TABS,ioos:station:wmo:42050:1,2013-03-04T13:00:00Z,28.8425,-94.2433,2.0,33.7423,11111222 
TABS,ioos:station:wmo:42050:1,2013-03-04T13:30:00Z,28.8425,-94.2433,2.0,33.7893,11111222 
TABS,ioos:station:wmo:42050:1,2013-03-04T14:00:00Z,28.8425,-94.2433,2.0,33.8296,11111222 
TABS,ioos:station:wmo:42050:1,2013-03-04T14:30:00Z,28.8425,-94.2433,2.0,33.8908,11111222 
TABS,ioos:station:wmo:42050:1,2013-03-04T15:00:00Z,28.8425,-94.2433,2.0,33.9441,11111222 
TABS,ioos:station:wmo:42050:1,2013-03-04T15:30:00Z,28.8425,-94.2433,2.0,33.9972,11111222 
TABS,ioos:station:wmo:42050:1,2013-03-04T16:00:00Z,28.8425,-94.2433,2.0,34.0399,11111222 
TABS,ioos:station:wmo:42050:1,2013-03-04T16:30:00Z,28.8425,-94.2433,2.0,34.0702,11111222 
TABS,ioos:station:wmo:42050:1,2013-03-04T17:00:00Z,28.8425,-94.2433,2.0,34.0888,11111222 
TABS,ioos:station:wmo:42050:1,2013-03-04T17:30:00Z,28.8425,-94.2433,2.0,34.1254,11111222 
TABS,ioos:station:wmo:42050:1,2013-03-04T18:00:00Z,28.8425,-94.2433,2.0,34.1051,11111222 
TABS,ioos:station:wmo:42050:1,2013-03-04T18:30:00Z,28.8425,-94.2433,2.0,34.1202,11111222 
TABS,ioos:station:wmo:42050:1,2013-03-04T19:00:00Z,28.8425,-94.2433,2.0,34.1094,11111222 
TABS,ioos:station:wmo:42050:1,2013-03-04T19:30:00Z,28.8425,-94.2433,2.0,34.1419,11111222 
TABS,ioos:station:wmo:42050:1,2013-03-04T20:00:00Z,28.8425,-94.2433,2.0,34.1532,11111222 
TABS,ioos:station:wmo:42050:1,2013-03-04T20:30:00Z,28.8425,-94.2433,2.0,34.1604,11111222 
TABS,ioos:station:wmo:42050:1,2013-03-04T21:00:00Z,28.8425,-94.2433,2.0,34.1693,11111222 
TABS,ioos:station:wmo:42050:1,2013-03-04T21:30:00Z,28.8425,-94.2433,2.0,34.1567,11111222 
TABS,ioos:station:wmo:42050:1,2013-03-04T22:00:00Z,28.8425,-94.2433,2.0,34.1636,11111222 
TABS,ioos:station:wmo:42050:1,2013-03-04T22:30:00Z,28.8425,-94.2433,2.0,34.1492,11111222 
TABS,ioos:station:wmo:42050:1,2013-03-04T23:00:00Z,28.8425,-94.2433,2.0,34.1801,11111222 
TABS,ioos:station:wmo:42050:1,2013-03-04T23:30:00Z,28.8425,-94.2433,2.0,34.1901,11111222 
TABS,ioos:station:wmo:42050:1,2013-03-05T00:00:00Z,28.8425,-94.2433,2.0,34.2088,11111222 
TABS,ioos:station:wmo:42050:1,2013-03-05T00:30:00Z,28.8425,-94.2433,2.0,34.2098,11111222 
TABS,ioos:station:wmo:42050:1,2013-03-05T01:00:00Z,28.8425,-94.2433,2.0,34.2181,11111222 
TABS,ioos:station:wmo:42050:1,2013-03-05T01:30:00Z,28.8425,-94.2433,2.0,34.2326,11111222 
TABS,ioos:station:wmo:42050:1,2013-03-05T02:00:00Z,28.8425,-94.2433,2.0,34.2317,11111222 
TABS,ioos:station:wmo:42050:1,2013-03-05T02:30:00Z,28.8425,-94.2433,2.0,34.2182,11111222 
TABS,ioos:station:wmo:42050:1,2013-03-05T03:00:00Z,28.8425,-94.2433,2.0,34.2024,11111222 
TABS,ioos:station:wmo:42050:1,2013-03-05T03:30:00Z,28.8425,-94.2433,2.0,34.1948,11111222 
TABS,ioos:station:wmo:42050:1,2013-03-05T04:00:00Z,28.8425,-94.2433,2.0,34.185,11111222 
TABS,ioos:station:wmo:42050:1,2013-03-05T04:30:00Z,28.8425,-94.2433,2.0,34.18,11111222 
TABS,ioos:station:wmo:42050:1,2013-03-05T05:00:00Z,28.8425,-94.2433,2.0,34.1732,11111222 
TABS,ioos:station:wmo:42050:1,2013-03-05T05:30:00Z,28.8425,-94.2433,2.0,34.1571,11111222 
TABS,ioos:station:wmo:42050:1,2013-03-05T06:00:00Z,28.8425,-94.2433,2.0,34.128,11111222 
TABS,ioos:station:wmo:42050:1,2013-03-05T06:30:00Z,28.8425,-94.2433,2.0,34.0979,11111222 
TABS,ioos:station:wmo:42050:1,2013-03-05T07:00:00Z,28.8425,-94.2433,2.0,34.0537,11111222 
TABS,ioos:station:wmo:42050:1,2013-03-05T07:30:00Z,28.8425,-94.2433,2.0,34.0381,11111222 
TABS,ioos:station:wmo:42050:1,2013-03-05T08:00:00Z,28.8425,-94.2433,2.0,34.0286,11111222 
TABS,ioos:station:wmo:42050:1,2013-03-05T08:30:00Z,28.8425,-94.2433,2.0,34.0265,11111222 
TABS,ioos:station:wmo:42050:1,2013-03-05T09:00:00Z,28.8425,-94.2433,2.0,34.0317,11111222 
TABS,ioos:station:wmo:42050:1,2013-03-05T09:30:00Z,28.8425,-94.2433,2.0,34.0524,11111222 
TABS,ioos:station:wmo:42050:1,2013-03-05T10:00:00Z,28.8425,-94.2433,2.0,34.0747,11111222 
TABS,ioos:station:wmo:42050:1,2013-03-05T10:30:00Z,28.8425,-94.2433,2.0,34.0853,11111222 
TABS,ioos:station:wmo:42050:1,2013-03-05T11:00:00Z,28.8425,-94.2433,2.0,34.1007,11111222 
TABS,ioos:station:wmo:42050:1,2013-03-05T11:30:00Z,28.8425,-94.2433,2.0,34.0849,11111222 
TABS,ioos:station:wmo:42050:1,2013-03-05T12:00:00Z,28.8425,-94.2433,2.0,34.059,11111222 
TABS,ioos:station:wmo:42050:1,2013-03-05T12:30:00Z,28.8425,-94.2433,2.0,34.0813,11111222 
TABS,ioos:station:wmo:42050:1,2013-03-05T13:00:00Z,28.8425,-94.2433,2.0,34.0837,11111222 
TABS,ioos:station:wmo:42050:1,2013-03-05T13:30:00Z,28.8425,-94.2433,2.0,34.0938,11111222 
TABS,ioos:station:wmo:42050:1,2013-03-05T14:00:00Z,28.8425,-94.2433,2.0,34.1041,11111222 
TABS,ioos:station:wmo:42050:1,2013-03-05T14:30:00Z,28.8425,-94.2433,2.0,34.0896,11111222 
TABS,ioos:station:wmo:42050:1,2013-03-05T15:00:00Z,28.8425,-94.2433,2.0,34.0478,11111222 
TABS,ioos:station:wmo:42050:1,2013-03-05T15:30:00Z,28.8425,-94.2433,2.0,34.0288,11111222 
TABS,ioos:station:wmo:42050:1,2013-03-05T16:00:00Z,28.8425,-94.2433,2.0,34.0218,11111222 
TABS,ioos:station:wmo:42050:1,2013-03-05T16:30:00Z,28.8425,-94.2433,2.0,34.0369,11111222 
TABS,ioos:station:wmo:42050:1,2013-03-05T17:00:00Z,28.8425,-94.2433,2.0,34.1202,11111222 
TABS,ioos:station:wmo:42050:1,2013-03-05T17:30:00Z,28.8425,-94.2433,2.0,34.1375,11111222 
TABS,ioos:station:wmo:42050:1,2013-03-05T18:00:00Z,28.8425,-94.2433,2.0,34.1489,11111222 
TABS,ioos:station:wmo:42050:1,2013-03-05T18:30:00Z,28.8425,-94.2433,2.0,34.1331,11111222 
TABS,ioos:station:wmo:42050:1,2013-03-05T19:00:00Z,28.8425,-94.2433,2.0,33.3622,11111222 
TABS,ioos:station:wmo:42050:1,2013-03-05T19:30:00Z,28.8425,-94.2433,2.0,33.2982,11111222 
TABS,ioos:station:wmo:42050:1,2013-03-05T20:00:00Z,28.8425,-94.2433,2.0,33.2803,11111222 
TABS,ioos:station:wmo:42050:1,2013-03-05T20:30:00Z,28.8425,-94.2433,2.0,33.2974,11111222 
TABS,ioos:station:wmo:42050:1,2013-03-05T21:00:00Z,28.8425,-94.2433,2.0,33.3915,11111222 
TABS,ioos:station:wmo:42050:1,2013-03-05T21:30:00Z,28.8425,-94.2433,2.0,33.3671,11111222 
TABS,ioos:station:wmo:42050:1,2013-03-05T22:00:00Z,28.8425,-94.2433,2.0,33.3839,11111222 
TABS,ioos:station:wmo:42050:1,2013-03-05T22:30:00Z,28.8425,-94.2433,2.0,33.4047,11111222 
TABS,ioos:station:wmo:42050:1,2013-03-05T23:00:00Z,28.8425,-94.2433,2.0,33.4722,11111222 
TABS,ioos:station:wmo:42050:1,2013-03-05T23:30:00Z,28.8425,-94.2433,2.0,33.4745,11111222 
TABS,ioos:station:wmo:42050:1,2013-03-06T00:00:00Z,28.8425,-94.2433,2.0,33.4913,11111222 
TABS,ioos:station:wmo:42050:1,2013-03-06T00:30:00Z,28.8425,-94.2433,2.0,33.4288,11111222 
TABS,ioos:station:wmo:42050:1,2013-03-06T01:00:00Z,28.8425,-94.2433,2.0,33.3982,11111222 
TABS,ioos:station:wmo:42050:1,2013-03-06T01:30:00Z,28.8425,-94.2433,2.0,33.3651,11111222 
TABS,ioos:station:wmo:42050:1,2013-03-06T02:00:00Z,28.8425,-94.2433,2.0,33.3789,11111222 
TABS,ioos:station:wmo:42050:1,2013-03-06T02:30:00Z,28.8425,-94.2433,2.0,33.3776,11111222 
TABS,ioos:station:wmo:42050:1,2013-03-06T03:00:00Z,28.8425,-94.2433,2.0,32.8247,11111222 
TABS,ioos:station:wmo:42050:1,2013-03-06T03:30:00Z,28.8425,-94.2433,2.0,32.7136,11111222 
TABS,ioos:station:wmo:42050:1,2013-03-06T04:00:00Z,28.8425,-94.2433,2.0,32.7095,11111222 
TABS,ioos:station:wmo:42050:1,2013-03-06T04:30:00Z,28.8425,-94.2433,2.0,32.6225,11111222 
TABS,ioos:station:wmo:42050:1,2013-03-06T05:00:00Z,28.8425,-94.2433,2.0,32.5815,11111222 
TABS,ioos:station:wmo:42050:1,2013-03-06T05:30:00Z,28.8425,-94.2433,2.0,31.8613,11111222 
TABS,ioos:station:wmo:42050:1,2013-03-06T06:00:00Z,28.8425,-94.2433,2.0,32.1309,11111222 
TABS,ioos:station:wmo:42050:1,2013-03-06T06:30:00Z,28.8425,-94.2433,2.0,32.175,11111222 
TABS,ioos:station:wmo:42050:1,2013-03-06T07:00:00Z,28.8425,-94.2433,2.0,32.3509,11111222 
TABS,ioos:station:wmo:42050:1,2013-03-06T07:30:00Z,28.8425,-94.2433,2.0,32.455,11111222 
TABS,ioos:station:wmo:42050:1,2013-03-06T08:00:00Z,28.8425,-94.2433,2.0,32.463,11111222 
TABS,ioos:station:wmo:42050:1,2013-03-06T08:30:00Z,28.8425,-94.2433,2.0,32.438,11111222 
TABS,ioos:station:wmo:42050:1,2013-03-06T09:00:00Z,28.8425,-94.2433,2.0,32.5418,11111222 
TABS,ioos:station:wmo:42050:1,2013-03-06T09:30:00Z,28.8425,-94.2433,2.0,32.5396,11111222 
TABS,ioos:station:wmo:42050:1,2013-03-06T10:00:00Z,28.8425,-94.2433,2.0,32.5893,11111222 
TABS,ioos:station:wmo:42050:1,2013-03-06T10:30:00Z,28.8425,-94.2433,2.0,32.7328,11111222 
TABS,ioos:station:wmo:42050:1,2013-03-06T11:00:00Z,28.8425,-94.2433,2.0,32.7962,11111222 
TABS,ioos:station:wmo:42050:1,2013-03-06T11:30:00Z,28.8425,-94.2433,2.0,32.7925,11111222 
TABS,ioos:station:wmo:42050:1,2013-03-06T12:00:00Z,28.8425,-94.2433,2.0,32.9452,11111222 
TABS,ioos:station:wmo:42050:1,2013-03-06T12:30:00Z,28.8425,-94.2433,2.0,33.0273,11111222 
TABS,ioos:station:wmo:42050:1,2013-03-06T13:00:00Z,28.8425,-94.2433,2.0,33.0344,11111222 
TABS,ioos:station:wmo:42050:1,2013-03-06T13:30:00Z,28.8425,-94.2433,2.0,33.0302,11111222 
TABS,ioos:station:wmo:42050:1,2013-03-06T14:00:00Z,28.8425,-94.2433,2.0,33.0415,11111222 
TABS,ioos:station:wmo:42050:1,2013-03-06T14:30:00Z,28.8425,-94.2433,2.0,33.0261,11111222 
TABS,ioos:station:wmo:42050:1,2013-03-06T15:00:00Z,28.8425,-94.2433,2.0,33.0595,11111222 
TABS,ioos:station:wmo:42050:1,2013-03-06T15:30:00Z,28.8425,-94.2433,2.0,33.0687,11111222 
TABS,ioos:station:wmo:42050:1,2013-03-06T16:00:00Z,28.8425,-94.2433,2.0,33.075,11111222 
TABS,ioos:station:wmo:42050:1,2013-03-06T16:30:00Z,28.8425,-94.2433,2.0,33.1082,11111222 